Regional Weather Roundup
Issued by NWS

Home | Current Version | Previous Version | Text Only | Print | Product List | Glossary On
Versions: 1 2 3 4 5 6 7 8 9 10 11 12 13 14 15 16 17 18 19 20 21 22 23 24 25 26 27 28 29 30 31 32 33 34 35 36 37 38 39 40 41 42 43 44 45 46 47 48 49 50
000
ASUS43 KFSD 261302
RWRSD

WEATHER ROUNDUP FOR SOUTH DAKOTA
NATIONAL WEATHER SERVICE SIOUX FALLS SD
700 AM CST FRI DEC 26 2014

NOTE: "FAIR" INDICATES FEW OR NO CLOUDS BELOW 12,000 FEET WITH NO
SIGNIFICANT WEATHER AND/OR OBSTRUCTIONS TO VISIBILITY.


SDZ001>005-009-010-012>017-261400-
NORTHWEST AND NORTH CENTRAL SOUTH DAKOTA

CITY           SKY/WX    TMP DP  RH WIND       PRES   REMARKS
BUFFALO          N/A     19  13  77 NW12      30.00R WCI   7
FAITH            N/A     20  14  77 NW12      30.09R WCI   8
MOBRIDGE       CLOUDY    24  20  84 N6        30.08R WCI  17
$$

SDZ012>016-024>037-041>051-057-063-072>074-261400-
SOUTHWEST AND SOUTH CENTRAL SOUTH DAKOTA

CITY           SKY/WX    TMP DP  RH WIND       PRES   REMARKS
RAPID CTY ARPT CLOUDY    19  16  88 N10       30.06R WCI   7
PIERRE         CLOUDY    24  21  88 N14       30.09R WCI  12
CUSTER         CLOUDY    15  12  88 W5        29.90R WCI   8
ELLSWORTH AFB  CLOUDY    19  16  86 N9        30.05  WCI   9
PHILIP         CLOUDY    23  17  78 NW8       30.10R WCI  14
PINE RIDGE     FLURRIES  20  15  81 N10       30.03R WCI   9
WINNER         FRZ RAIN  25  22  88 N16       30.05S FOG     WCI  12
$$

SDZ004>011-016>023-039-040-261400-
NORTHEAST SOUTH DAKOTA

CITY           SKY/WX    TMP DP  RH WIND       PRES   REMARKS
ABERDEEN       CLOUDY    24  20  84 NE9       30.10R WCI  14
WATERTOWN      LGT SNOW  22  19  89 N16       30.02R FOG     WCI   8
SISSETON         N/A     24  21  88 N17       30.07R WCI  11
$$

SDZ017-020-022-023-036>040-048>070-261400-
SOUTHEAST SOUTH DAKOTA

CITY           SKY/WX    TMP DP  RH WIND       PRES   REMARKS
SIOUX FALLS    FLURRIES  26  23  88 N16       30.00R WCI  14
HURON          CLOUDY    24  20  84 N13       30.07R WCI  12
MITCHELL       CLOUDY    26  23  88 N15       30.07R WCI  14
YANKTON        CLOUDY    27  25  93 N17       30.01R WCI  14
$$

ABBREVIATIONS USED IN REMARKS
   TC - TEMPERATURE IN CELSIUS
  WCI - WIND CHILL INDEX
   HX - HEAT INDEX
  VSB - VISIBILITY



USA.gov is the U.S. government's official web portal to all federal, state and local government web resources and services.